When you browse on this site, cookies collect data to enhance your experience and personalize the content and advertising you see.
Visit our Privacy Policy to learn more. By continuing to use the site, you agree to this use of cookies and data.
  • In Hungary
  • List of Countries
  • For 7 days
  • Water Temperature
  • Satellite Maps
  • Weather Map
  • News
  • Weather Widgets
  • user-avatar
    Login

    Hourly Weather Malabo

    Today, 17 December, Monday

    Time Temperature Precipitation Wind Pressure Humidity
    00:00 +29°C° 0 mm 4 mps 756 mmHg 85%
    01:00 +28°C° 0 mm 4 mps 756 mmHg 86%
    02:00 +28°C° 0.1 mm 4 mps 756 mmHg 86%
    03:00 +28°C° 0.1 mm 3 mps 756 mmHg 85%
    04:00 +28°C° 0.1 mm 3 mps 756 mmHg 85%
    05:00 +28°C° 0.1 mm 3 mps 756 mmHg 84%
    06:00 +28°C° 0.1 mm 2 mps 756 mmHg 83%
    07:00 +28°C° 0 mm 2 mps 756 mmHg 83%
    08:00 +29°C° 0.2 mm 2 mps 756 mmHg 80%
    09:00 +29°C° 0.2 mm 2 mps 756 mmHg 76%
    10:00 +30°C° 0.2 mm 1 mps 756 mmHg 72%
    11:00 +30°C° 0 mm 2 mps 756 mmHg 73%
    12:00 +30°C° 0 mm 2 mps 755 mmHg 73%
    13:00 +30°C° 0 mm 2 mps 755 mmHg 73%
    14:00 +30°C° 0 mm 3 mps 755 mmHg 74%
    15:00 +30°C° 0 mm 3 mps 754 mmHg 74%
    16:00 +30°C° 0 mm 3 mps 754 mmHg 75%
    17:00 +30°C° 0 mm 3 mps 754 mmHg 76%
    18:00 +29°C° 0 mm 3 mps 754 mmHg 78%
    19:00 +29°C° 0 mm 3 mps 755 mmHg 79%
    20:00 +29°C° 0 mm 3 mps 755 mmHg 80%
    21:00 +29°C° 0 mm 3 mps 756 mmHg 80%
    22:00 +29°C° 0 mm 4 mps 756 mmHg 81%
    23:00 +29°C° 0 mm 4 mps 756 mmHg 81%

    Tomorrow, 18 December, Tuesday

    Time Temperature Precipitation Wind Pressure Humidity
    00:00 +29°C° 0 mm 4 mps 756 mmHg 82%
    01:00 +28°C° 0 mm 4 mps 756 mmHg 83%
    02:00 +28°C° 0 mm 4 mps 755 mmHg 83%
    03:00 +28°C° 0 mm 3 mps 755 mmHg 83%
    04:00 +28°C° 0 mm 3 mps 755 mmHg 83%
    05:00 +28°C° 0 mm 3 mps 755 mmHg 83%
    06:00 +28°C° 0 mm 2 mps 755 mmHg 82%
    07:00 +28°C° 0 mm 2 mps 756 mmHg 81%
    08:00 +29°C° 0 mm 1 mps 756 mmHg 78%
    09:00 +29°C° 0 mm 1 mps 756 mmHg 75%
    10:00 +30°C° 0 mm 1 mps 757 mmHg 71%
    11:00 +30°C° 0 mm 2 mps 756 mmHg 70%
    12:00 +31°C° 0 mm 2 mps 756 mmHg 69%
    13:00 +31°C° 0 mm 2 mps 755 mmHg 68%
    14:00 +31°C° 0 mm 2 mps 755 mmHg 70%
    15:00 +30°C° 0 mm 3 mps 754 mmHg 71%
    16:00 +30°C° 0 mm 3 mps 754 mmHg 73%
    17:00 +30°C° 0 mm 3 mps 754 mmHg 75%
    18:00 +29°C° 0 mm 4 mps 755 mmHg 77%
    19:00 +29°C° 0 mm 4 mps 755 mmHg 79%
    20:00 +29°C° 0 mm 4 mps 755 mmHg 80%
    21:00 +29°C° 0 mm 4 mps 756 mmHg 81%
    22:00 +29°C° 0 mm 4 mps 756 mmHg 81%
    23:00 +29°C° 0.2 mm 4 mps 756 mmHg 82%

    Day after tomorrow, 19 December, Wednesday

    Time Temperature Precipitation Wind Pressure Humidity
    00:00 +29°C° 0.2 mm 4 mps 756 mmHg 82%
    01:00 +28°C° 0.2 mm 4 mps 756 mmHg 83%
    02:00 +28°C° 0.2 mm 4 mps 756 mmHg 84%
    03:00 +28°C° 0.2 mm 4 mps 755 mmHg 85%
    04:00 +28°C° 0.2 mm 4 mps 755 mmHg 85%
    05:00 +28°C° 0.1 mm 4 mps 755 mmHg 84%
    06:00 +28°C° 0.1 mm 3 mps 756 mmHg 83%
    07:00 +28°C° 0.1 mm 3 mps 756 mmHg 82%
    08:00 +29°C° 0 mm 2 mps 757 mmHg 79%
    09:00 +29°C° 0 mm 2 mps 757 mmHg 76%
    10:00 +30°C° 0 mm 2 mps 757 mmHg 73%
    11:00 +30°C° 0 mm 2 mps 757 mmHg 73%
    12:00 +30°C° 0 mm 2 mps 756 mmHg 73%
    13:00 +30°C° 0 mm 3 mps 755 mmHg 73%
    14:00 +30°C° 0 mm 3 mps 755 mmHg 74%
    15:00 +30°C° 0 mm 3 mps 754 mmHg 74%
    16:00 +30°C° 0 mm 4 mps 753 mmHg 75%
    17:00 +29°C° 0 mm 4 mps 754 mmHg 77%
    18:00 +29°C° 0 mm 4 mps 754 mmHg 78%
    19:00 +29°C° 0 mm 4 mps 755 mmHg 80%
    20:00 +29°C° 0.1 mm 4 mps 755 mmHg 81%
    21:00 +29°C° 0.1 mm 4 mps 756 mmHg 82%
    22:00 +29°C° 0.1 mm 4 mps 757 mmHg 82%
    23:00 +28°C° 0.7 mm 4 mps 756 mmHg 83%

    20 December, Thursday

    Time Temperature Precipitation Wind Pressure Humidity
    00:00 +28°C° 0.7 mm 4 mps 756 mmHg 83%
    01:00 +28°C° 0.7 mm 4 mps 756 mmHg 84%
    02:00 +28°C° 0.4 mm 4 mps 755 mmHg 83%
    03:00 +28°C° 0.4 mm 4 mps 755 mmHg 82%
    04:00 +28°C° 0.4 mm 4 mps 755 mmHg 81%
    05:00 +28°C° 0.1 mm 4 mps 755 mmHg 81%
    06:00 +28°C° 0.1 mm 3 mps 755 mmHg 81%
    07:00 +28°C° 0.1 mm 3 mps 756 mmHg 81%
    08:00 +28°C° 0 mm 2 mps 756 mmHg 78%
    09:00 +29°C° 0 mm 2 mps 757 mmHg 75%
    10:00 +30°C° 0 mm 2 mps 757 mmHg 73%
    11:00 +30°C° 0 mm 2 mps 756 mmHg 72%
    12:00 +30°C° 0 mm 2 mps 756 mmHg 72%
    13:00 +30°C° 0 mm 2 mps 755 mmHg 71%
    14:00 +30°C° 0 mm 3 mps 754 mmHg 72%
    15:00 +30°C° 0 mm 3 mps 754 mmHg 74%
    16:00 +30°C° 0 mm 3 mps 753 mmHg 75%
    17:00 +29°C° 0 mm 4 mps 754 mmHg 76%
    18:00 +29°C° 0 mm 4 mps 754 mmHg 78%
    19:00 +29°C° 0 mm 4 mps 755 mmHg 79%
    20:00 +29°C° 0 mm 4 mps 755 mmHg 80%
    21:00 +29°C° 0 mm 3 mps 756 mmHg 80%
    22:00 +29°C° 0 mm 3 mps 756 mmHg 81%
    23:00 +28°C° 0 mm 3 mps 756 mmHg 82%

    21 December, Friday

    Time Temperature Precipitation Wind Pressure Humidity
    00:00 +28°C° 0 mm 3 mps 756 mmHg 83%
    01:00 +28°C° 0 mm 4 mps 756 mmHg 83%
    02:00 +28°C° 0 mm 3 mps 755 mmHg 83%
    03:00 +28°C° 0 mm 3 mps 755 mmHg 83%
    04:00 +28°C° 0 mm 3 mps 755 mmHg 83%
    05:00 +28°C° 0 mm 3 mps 755 mmHg 83%
    06:00 +28°C° 0 mm 2 mps 755 mmHg 83%
    07:00 +28°C° 0 mm 2 mps 756 mmHg 82%
    08:00 +29°C° 0 mm 2 mps 756 mmHg 79%
    09:00 +29°C° 0 mm 2 mps 756 mmHg 77%
    10:00 +30°C° 0 mm 1 mps 757 mmHg 74%
    11:00 +30°C° 0 mm 2 mps 756 mmHg 73%
    12:00 +30°C° 0 mm 2 mps 755 mmHg 73%
    13:00 +30°C° 0 mm 2 mps 755 mmHg 72%
    14:00 +30°C° 0 mm 2 mps 754 mmHg 73%
    15:00 +30°C° 0 mm 3 mps 753 mmHg 74%
    16:00 +30°C° 0 mm 3 mps 753 mmHg 75%
    17:00 +29°C° 0 mm 3 mps 753 mmHg 77%
    18:00 +29°C° 0 mm 3 mps 754 mmHg 78%
    19:00 +29°C° 0 mm 3 mps 754 mmHg 80%
    20:00 +29°C° 0 mm 3 mps 754 mmHg 80%
    21:00 +29°C° 0 mm 3 mps 755 mmHg 81%
    22:00 +29°C° 0 mm 3 mps 755 mmHg 81%
    23:00 +28°C° 0 mm 4 mps 755 mmHg 81%

    22 December, Saturday

    Time Temperature Precipitation Wind Pressure Humidity
    00:00 +28°C° 0 mm 4 mps 755 mmHg 82%
    01:00 +28°C° 0 mm 4 mps 754 mmHg 83%
    02:00 +28°C° 0.1 mm 4 mps 754 mmHg 83%
    03:00 +28°C° 0.1 mm 4 mps 754 mmHg 83%
    04:00 +28°C° 0.1 mm 4 mps 754 mmHg 84%
    05:00 +28°C° 0 mm 3 mps 754 mmHg 83%
    06:00 +28°C° 0 mm 3 mps 755 mmHg 83%
    07:00 +28°C° 0 mm 2 mps 755 mmHg 82%
    08:00 +29°C° 0 mm 2 mps 755 mmHg 79%
    09:00 +29°C° 0 mm 2 mps 756 mmHg 75%
    10:00 +30°C° 0 mm 1 mps 756 mmHg 71%
    11:00 +30°C° 0 mm 2 mps 755 mmHg 71%
    12:00 +30°C° 0 mm 2 mps 755 mmHg 71%
    13:00 +30°C° 0 mm 2 mps 754 mmHg 71%
    14:00 +30°C° 0 mm 2 mps 754 mmHg 71%
    15:00 +30°C° 0 mm 3 mps 753 mmHg 72%
    16:00 +30°C° 0 mm 3 mps 753 mmHg 73%
    17:00 +29°C° 0 mm 3 mps 753 mmHg 75%
    18:00 +29°C° 0 mm 3 mps 753 mmHg 76%
    19:00 +29°C° 0 mm 3 mps 754 mmHg 78%
    20:00 +29°C° 0 mm 3 mps 754 mmHg 79%
    21:00 +28°C° 0 mm 3 mps 755 mmHg 79%
    22:00 +28°C° 0 mm 3 mps 755 mmHg 80%
    23:00 +28°C° 0 mm 3 mps 755 mmHg 80%
    Show more